Hourly Weather Holoshyna

Today, 12 April, Monday

Time Temperature Precipitation Wind Pressure Humidity
00:00 +3°C° 0 mm 1 mps 682 mmHg 88%
01:00 +2°C° 0 mm 1 mps 682 mmHg 87%
02:00 +1°C° 0 mm 2 mps 682 mmHg 89%
03:00 +2°C° 0 mm 1 mps 682 mmHg 88%
04:00 +2°C° 0 mm 1 mps 682 mmHg 87%
05:00 +3°C° 0 mm 1 mps 682 mmHg 86%
06:00 +4°C° 0 mm 1 mps 682 mmHg 82%
07:00 +6°C° 0 mm 1 mps 682 mmHg 79%
08:00 +7°C° 0 mm 0 mps 682 mmHg 75%
09:00 +9°C° 0 mm 0 mps 682 mmHg 70%
10:00 +10°C° 0 mm 0 mps 682 mmHg 65%
11:00 +12°C° 0 mm 0 mps 682 mmHg 59%
12:00 +12°C° 0 mm 0 mps 682 mmHg 59%
13:00 +14°C° 0 mm 1 mps 681 mmHg 59%
14:00 +14°C° 0 mm 1 mps 681 mmHg 60%
15:00 +13°C° 0.1 mm 1 mps 681 mmHg 63%
16:00 +13°C° 0.1 mm 1 mps 681 mmHg 67%
17:00 +13°C° 0.1 mm 1 mps 681 mmHg 70%
18:00 +10°C° 0 mm 1 mps 681 mmHg 76%
19:00 +8°C° 0 mm 1 mps 681 mmHg 82%
20:00 +6°C° 0 mm 1 mps 681 mmHg 87%
21:00 +6°C° 0 mm 1 mps 681 mmHg 88%
22:00 +6°C° 0 mm 1 mps 681 mmHg 89%
23:00 +5°C° 0 mm 1 mps 680 mmHg 89%

Tomorrow, 13 April, Tuesday

Time Temperature Precipitation Wind Pressure Humidity
00:00 +5°C° 0 mm 1 mps 680 mmHg 89%
01:00 +5°C° 0 mm 1 mps 680 mmHg 90%
02:00 +4°C° 0 mm 1 mps 680 mmHg 90%
03:00 +4°C° 0 mm 1 mps 680 mmHg 90%
04:00 +4°C° 0 mm 1 mps 680 mmHg 90%
05:00 +4°C° 0 mm 1 mps 680 mmHg 90%
06:00 +6°C° 0 mm 1 mps 680 mmHg 85%
07:00 +8°C° 0 mm 1 mps 680 mmHg 80%
08:00 +10°C° 0 mm 1 mps 680 mmHg 75%
09:00 +11°C° 0 mm 1 mps 680 mmHg 69%
10:00 +12°C° 0 mm 2 mps 680 mmHg 64%
11:00 +13°C° 0 mm 2 mps 680 mmHg 58%
12:00 +13°C° 0 mm 2 mps 679 mmHg 60%
13:00 +13°C° 0 mm 2 mps 679 mmHg 61%
14:00 +13°C° 0 mm 2 mps 679 mmHg 63%
15:00 +12°C° 0 mm 2 mps 678 mmHg 65%
16:00 +12°C° 0 mm 2 mps 678 mmHg 67%
17:00 +10°C° 0 mm 2 mps 678 mmHg 69%
18:00 +9°C° 0 mm 2 mps 677 mmHg 74%
19:00 +8°C° 0 mm 2 mps 677 mmHg 80%
20:00 +7°C° 0 mm 1 mps 677 mmHg 85%
21:00 +7°C° 0 mm 1 mps 677 mmHg 88%
22:00 +7°C° 0 mm 1 mps 677 mmHg 91%
23:00 +6°C° 0 mm 1 mps 677 mmHg 94%

Day after tomorrow, 14 April, Wednesday

Time Temperature Precipitation Wind Pressure Humidity
00:00 +6°C° 0.2 mm 1 mps 676 mmHg 95%
01:00 +6°C° 0.2 mm 1 mps 676 mmHg 96%
02:00 +5°C° 0.2 mm 1 mps 676 mmHg 97%
03:00 +5°C° 0.4 mm 1 mps 676 mmHg 97%
04:00 +5°C° 0.4 mm 1 mps 675 mmHg 97%
05:00 +4°C° 0.4 mm 1 mps 675 mmHg 97%
06:00 +4°C° 0.7 mm 1 mps 675 mmHg 98%
07:00 +4°C° 0.7 mm 1 mps 675 mmHg 98%
08:00 +3°C° 0.7 mm 1 mps 675 mmHg 98%
09:00 +3°C° 0.5 mm 1 mps 675 mmHg 98%
10:00 +3°C° 0.5 mm 1 mps 675 mmHg 98%
11:00 +3°C° 0.5 mm 1 mps 676 mmHg 98%
12:00 +3°C° 0.2 mm 1 mps 676 mmHg 98%
13:00 +3°C° 0.2 mm 1 mps 676 mmHg 98%
14:00 +3°C° 0.2 mm 1 mps 676 mmHg 97%
15:00 +2°C° 0.1 mm 1 mps 676 mmHg 97%
16:00 +2°C° 0.1 mm 1 mps 676 mmHg 97%
17:00 +2°C° 0.1 mm 1 mps 676 mmHg 97%
18:00 +1°C° 0.3 mm 1 mps 676 mmHg 97%
19:00 +1°C° 0.3 mm 1 mps 676 mmHg 97%
20:00 0°C° 0.3 mm 1 mps 676 mmHg 97%
21:00 0°C° 0.3 mm 1 mps 676 mmHg 97%
22:00 0°C° 0.3 mm 1 mps 676 mmHg 97%
23:00 0°C° 0.3 mm 1 mps 676 mmHg 97%

15 April, Thursday

Time Temperature Precipitation Wind Pressure Humidity
00:00 0°C° 0.2 mm 1 mps 676 mmHg 97%
01:00 0°C° 0.2 mm 1 mps 676 mmHg 97%
02:00 0°C° 0.2 mm 1 mps 676 mmHg 97%
03:00 0°C° 0.3 mm 1 mps 676 mmHg 97%
04:00 0°C° 0.3 mm 1 mps 676 mmHg 97%
05:00 0°C° 0.3 mm 1 mps 676 mmHg 98%
06:00 0°C° 0.3 mm 1 mps 676 mmHg 97%
07:00 0°C° 0.3 mm 1 mps 676 mmHg 96%
08:00 +1°C° 0.3 mm 1 mps 677 mmHg 95%
09:00 +1°C° 0.3 mm 1 mps 677 mmHg 94%
10:00 +2°C° 0.3 mm 1 mps 677 mmHg 94%
11:00 +2°C° 0.3 mm 1 mps 677 mmHg 93%
12:00 +2°C° 0.3 mm 1 mps 677 mmHg 94%
13:00 +2°C° 0.3 mm 1 mps 677 mmHg 95%
14:00 +2°C° 0.3 mm 1 mps 677 mmHg 96%
15:00 +2°C° 0.4 mm 1 mps 677 mmHg 97%
16:00 +2°C° 0.4 mm 1 mps 677 mmHg 97%
17:00 +1°C° 0.4 mm 1 mps 677 mmHg 97%
18:00 +1°C° 0.3 mm 1 mps 677 mmHg 97%
19:00 0°C° 0.3 mm 1 mps 677 mmHg 98%
20:00 0°C° 0.3 mm 1 mps 677 mmHg 99%
21:00 0°C° 0.3 mm 1 mps 677 mmHg 98%
22:00 0°C° 0.3 mm 1 mps 677 mmHg 98%
23:00 0°C° 0.3 mm 1 mps 677 mmHg 98%

16 April, Friday

Time Temperature Precipitation Wind Pressure Humidity
00:00 -1°C° 0.3 mm 1 mps 677 mmHg 98%
01:00 -1°C° 0.3 mm 1 mps 677 mmHg 98%
02:00 -1°C° 0.3 mm 1 mps 677 mmHg 98%
03:00 -1°C° 0.2 mm 1 mps 677 mmHg 98%
04:00 -1°C° 0.2 mm 1 mps 676 mmHg 98%
05:00 -1°C° 0.2 mm 1 mps 676 mmHg 98%
06:00 -1°C° 0.2 mm 1 mps 677 mmHg 96%
07:00 0°C° 0.2 mm 1 mps 677 mmHg 94%
08:00 0°C° 0.2 mm 1 mps 677 mmHg 92%
09:00 -1°C° 0.2 mm 2 mps 677 mmHg 91%
10:00 -1°C° 0.2 mm 2 mps 677 mmHg 89%
11:00 0°C° 0.2 mm 3 mps 677 mmHg 87%
12:00 0°C° 0.1 mm 3 mps 677 mmHg 87%
13:00 +1°C° 0.1 mm 3 mps 677 mmHg 86%
14:00 +1°C° 0.1 mm 3 mps 677 mmHg 86%
15:00 +1°C° 0.1 mm 3 mps 677 mmHg 86%
16:00 +1°C° 0.1 mm 3 mps 677 mmHg 86%
17:00 0°C° 0.1 mm 3 mps 677 mmHg 86%
18:00 0°C° 0 mm 3 mps 677 mmHg 89%
19:00 -1°C° 0 mm 2 mps 677 mmHg 92%
20:00 -2°C° 0 mm 2 mps 677 mmHg 94%
21:00 -3°C° 0.1 mm 2 mps 677 mmHg 95%
22:00 -3°C° 0.1 mm 2 mps 677 mmHg 95%
23:00 -3°C° 0.1 mm 2 mps 677 mmHg 96%

17 April, Saturday

Time Temperature Precipitation Wind Pressure Humidity
00:00 -3°C° 0.4 mm 2 mps 678 mmHg 96%
01:00 -1°C° 0.4 mm 1 mps 678 mmHg 97%
02:00 -1°C° 0.4 mm 1 mps 678 mmHg 97%
03:00 -1°C° 0.3 mm 1 mps 678 mmHg 97%
04:00 -1°C° 0.3 mm 1 mps 678 mmHg 97%
05:00 -1°C° 0.3 mm 1 mps 678 mmHg 98%
06:00 0°C° 0.1 mm 1 mps 678 mmHg 96%
07:00 0°C° 0.1 mm 1 mps 678 mmHg 95%
08:00 0°C° 0.1 mm 0 mps 679 mmHg 93%
09:00 +1°C° 0 mm 0 mps 679 mmHg 93%
10:00 +2°C° 0 mm 0 mps 679 mmHg 92%
11:00 +3°C° 0 mm 0 mps 679 mmHg 92%
12:00 +3°C° 0 mm 0 mps 679 mmHg 93%
13:00 +4°C° 0 mm 1 mps 679 mmHg 94%
14:00 +4°C° 0 mm 1 mps 679 mmHg 95%
15:00 +4°C° 0 mm 1 mps 679 mmHg 96%
16:00 +4°C° 0 mm 1 mps 680 mmHg 97%
17:00 +4°C° 0 mm 1 mps 680 mmHg 98%
18:00 +3°C° 0 mm 1 mps 680 mmHg 98%
19:00 +3°C° 0 mm 1 mps 680 mmHg 99%
20:00 +2°C° 0 mm 1 mps 680 mmHg 99%
21:00 +2°C° 0 mm 1 mps 680 mmHg 99%
22:00 +2°C° 0 mm 1 mps 680 mmHg 98%
23:00 +2°C° 0 mm 1 mps 681 mmHg 98%
Show more